Regional Weather Roundup
Issued by NWS

Home | Current Version | Previous Version | Graphics & Text | Print | Product List | Glossary On
Versions: 1 2 3 4 5 6 7 8 9 10 11 12 13 14 15 16 17 18 19 20 21 22 23 24 25 26 27 28 29 30 31 32 33 34 35 36 37 38 39 40 41 42 43 44 45 46 47 48 49 50
000
ASUS45 KCYS 262310
RWRWY

WYOMING REGIONAL WEATHER ROUNDUP
NATIONAL WEATHER SERVICE CHEYENNE WY
500 PM MDT THU APR 26 2018

NOTE:  "FAIR" INDICATES FEW OR NO CLOUDS BELOW 12,000 FEET
WITH NO SIGNIFICANT WEATHER AND/OR OBSTRUCTIONS TO VISIBILITY.

WYZ001-270000-
YELLOWSTONE NATIONAL PARK

CITY           SKY/WX    TMP DP  RH WIND       PRES   REMARKS
LK YELLOWSTONE   N/A     48   8  19 E5        30.32F
W YELLOWSTONE  NOT AVBL

$$
WYZ002>013-054>058-071-098>099-270000-
NORTHERN WYOMING

CITY           SKY/WX    TMP DP  RH WIND       PRES   REMARKS
JACKSON        FAIR      64   7  10 N9        30.23F
CODY           FAIR      64  21  19 VRB3      30.20F
GREYBULL       FAIR      64  26  23 SE6       30.18F
WORLAND        FAIR      64  17  16 CALM      30.19F
SHERIDAN       FAIR      65  28  24 NW9       30.17F
BUFFALO        FAIR      64  28  25 N9        30.21S
GILLETTE       FAIR      62  27  26 W8        30.17F
HULETT         FAIR      61  28  29 NW10G16   30.18F
NEWCASTLE      FAIR      59  23  25 NW15G24   30.19F

$$
WYZ014>020-022>026-101>103-270000-
CENTRAL WYOMING

CITY           SKY/WX    TMP DP  RH WIND       PRES   REMARKS
BIG PINEY      FAIR      63  13  14 VRB5      30.25F
PINEDALE       FAIR      61  14  16 N8        30.26F
DUBOIS         FAIR      59  19  21 E13       30.24S
LANDER         FAIR      62  24  23 VRB5      30.21F
RIVERTON       FAIR      62  24  23 E8        30.22F
CASPER         FAIR      60  24  25 SW6       30.22F
DOUGLAS        FAIR      62  28  27 W14       30.22F

$$
WYZ021-027>030-104>119-270000-
SOUTHERN WYOMING

CITY           SKY/WX    TMP DP  RH WIND       PRES   REMARKS
EVANSTON       FAIR      66  20  17 NW8       30.23F
KEMMERER       FAIR      63  12  14 CALM      30.26F
FORT BRIDGER   FAIR      65  15  14 NE7       30.27F
ROCK SPRINGS   FAIR      63  15  15 NE6       30.24F
DIXON          FAIR      62  18  18 N3        30.26F
RAWLINS        FAIR      59  19  21 N8G21     30.26F
SARATOGA       FAIR      55  16  21 N7        30.28F
LARAMIE        FAIR      53  21  28 NW8G20    30.26F
CHEYENNE       FAIR      56  25  30 NE9       30.24F
TORRINGTON     FAIR      62  27  26 NW6       30.19F
PINE BLUFFS    FAIR      55  25  30 NW16      30.24S

$$



USA.gov is the U.S. government's official web portal to all federal, state and local government web resources and services.